Regional Weather Roundup
Issued by NWS

Home | Current Version | Previous Version | Text Only | Print | Product List | Glossary On
Versions: 1 2 3 4 5 6 7 8 9 10 11 12 13 14 15 16 17 18 19 20 21 22 23 24 25 26 27 28
000
ASUS45 KPSR 250010
RWRAZ

ARIZONA HOURLY REGIONAL WEATHER ROUNDUP
NATIONAL WEATHER SERVICE PHOENIX AZ
500 PM MST SAT SEP 24 2016

NOTE: FAIR INDICATES FEW OR NO CLOUDS BELOW 12,000 FEET WITH NO
SIGNIFICANT WEATHER AND/OR OBSTRUCTIONS TO VISIBILITY.

AZZ001>003-036-250100-
NORTHWEST ARIZONA

CITY           SKY/WX    TMP DP  RH WIND       PRES   REMARKS
BULLHEAD CITY  SUNNY     90  28  11 NW15G22   29.96S
KINGMAN        SUNNY     79  32  18 N12       30.11S
6HR MIN TEMP:  73; 6HR MAX TEMP:  81;

$$

AZZ004>008-015-016-018-250100-
NORTH CENTRAL ARIZONA

CITY           SKY/WX    TMP DP  RH WIND       PRES   REMARKS
GRAND CANYON   SUNNY     64  32  30 E12       30.27R
6HR MIN TEMP:  59; 6HR MAX TEMP:  65;

PRESCOTT       SUNNY     71  30  21 NW12      30.15R
6HR MIN TEMP:  65; 6HR MAX TEMP:  73;

FLAGSTAFF      SUNNY     61  27  27 E13       30.24R
6HR MIN TEMP:  57; 6HR MAX TEMP:  64;

PAYSON         SUNNY     73  25  16 N13       30.15S
PAGE           SUNNY     71  33  24 VRB3      30.14F
6HR MIN TEMP:  65; 6HR MAX TEMP:  73;

$$

AZZ009>014-017-250100-
NORTHEAST ARIZONA

CITY           SKY/WX    TMP DP  RH WIND       PRES   REMARKS
WINSLOW        SUNNY     72  26  18 NW14      30.15S
6HR MIN TEMP:  66; 6HR MAX TEMP:  74;

SAINT JOHNS    SUNNY     69  22  16 NW10      30.15R
6HR MIN TEMP:  62; 6HR MAX TEMP:  71;

WINDOW ROCK    SUNNY     65  29  25 N7        30.21R
6HR MIN TEMP:  60; 6HR MAX TEMP:  67;

SHOW LOW       SUNNY     63  19  19 N9        30.21R
$$

AZZ023-250100-
GREATER PHOENIX AREA

CITY           SKY/WX    TMP DP  RH WIND       PRES   REMARKS
PHOENIX        SUNNY     90  32  12 W12       29.89F
6HR MIN TEMP:  79; 6HR MAX TEMP:  90;

BUCKEYE        SUNNY     88  36  15 SW8       29.91F
GLENDALE       MOSUNNY   90  32  12 S13       29.92S
LUKE AFB       SUNNY     89  32  13 S14       29.89S
6HR MIN TEMP:  81; 6HR MAX TEMP:  90;

DEER VALLEY    SUNNY     87  32  14 SW13      29.91S
6HR MIN TEMP:  79; 6HR MAX TEMP:  88;

SCOTTSDALE     SUNNY     88  29  12 SW7       29.92F
6HR MIN TEMP:  79; 6HR MAX TEMP:  89;

MESA-FALCON    SUNNY    N/A N/A N/A W9        29.89F
MESA-GATEWAY   SUNNY     88  30  12 NW8       29.92F
CHANDLER       SUNNY     88  28  11 SW6       29.91F
$$

AZZ027-028-250100-
SOUTHWEST MARICOPA COUNTY AND PINAL COUNTY

CITY           SKY/WX    TMP DP  RH WIND       PRES   REMARKS
CASA GRANDE    SUNNY     86  28  12 N10       29.95S
6HR MIN TEMP:  79; 6HR MAX TEMP:  88;

GILA BEND      SUNNY     89  25  10 VRB1      29.90F
6HR MIN TEMP:  80; 6HR MAX TEMP:  90;

$$

AZZ503-504-507>509-250100-
SOUTHEAST ARIZONA

CITY           SKY/WX    TMP DP  RH WIND       PRES   REMARKS
TUCSON         SUNNY     84  25  11 N10G18    29.99S
6HR MIN TEMP:  79; 6HR MAX TEMP:  87;

DAVIS-MONTHAN  SUNNY     82  24  12 NW14      29.98S
6HR MIN TEMP:  78; 6HR MAX TEMP:  85;

RYAN FIELD     SUNNY     82  27  13 N13G21    29.98S
NOGALES        MOSUNNY   79  43  27 W10G16    30.03S
6HR MIN TEMP:  76; 6HR MAX TEMP:  83;

SIERRA VISTA   MOSUNNY   74  42  31 NW10      30.08R
6HR MIN TEMP:  72; 6HR MAX TEMP:  80;

DOUGLAS        PTSUNNY   79  44  28 NW8       30.01S
6HR MIN TEMP:  75; 6HR MAX TEMP:  84;

SAFFORD        SUNNY     82  27  13 NW13      29.97S
6HR MIN TEMP:  72; 6HR MAX TEMP:  83;

$$

AZZ020-021-025-026-031-250100-
SOUTHWEST ARIZONA

CITY           SKY/WX    TMP DP  RH WIND       PRES   REMARKS
YUMA           SUNNY     94  26   9 N16       29.89F
6HR MIN TEMP:  88; 6HR MAX TEMP:  96;

$$

CAZ031-033-041-043-047-048-061-250100-
SOUTHERN CALIFORNIA

CITY           SKY/WX    TMP DP  RH WIND       PRES   REMARKS
DOWNTOWN L.A.  SUNNY     82  41  23 VRB5      29.94S
6HR MIN TEMP:  82; 6HR MAX TEMP:  90;

L.A. AIRPORT   SUNNY     78  48  34 W13       29.95S
6HR MIN TEMP:  76; 6HR MAX TEMP:  84;

SAN DIEGO      MOSUNNY   84  44  24 NW12      29.94S
6HR MIN TEMP:  81; 6HR MAX TEMP:  86;

BURBANK        SUNNY     88  28  11 S9        29.95S
6HR MIN TEMP:  83; 6HR MAX TEMP:  93;

ONTARIO        SUNNY     92  28  10 W12       29.94F
6HR MIN TEMP:  82; 6HR MAX TEMP:  94;

RIVERSIDE      SUNNY     92  41  17 W16G24    29.93S
6HR MIN TEMP:  86; 6HR MAX TEMP:  97;

PALM SPRINGS   SUNNY     96  34  11 NE5       29.93S
6HR MIN TEMP:  90; 6HR MAX TEMP:  96;

EL CENTRO NAS  SUNNY     95  26   8 N7        29.90F
6HR MIN TEMP:  87; 6HR MAX TEMP:  96;

IMPERIAL       SUNNY     97  34  11 N9        29.88F
6HR MIN TEMP:  90; 6HR MAX TEMP:  98;

BLYTHE         SUNNY     94  30  10 N10       29.91F
6HR MIN TEMP:  83; 6HR MAX TEMP:  95;

NEEDLES        SUNNY     92  28  10 N21       29.96F
6HR MIN TEMP:  85; 6HR MAX TEMP:  94;

$$

NVZ020-UTZ003-250100-
SOUTHERN NEVADA-UTAH

CITY           SKY/WX    TMP DP  RH WIND       PRES   REMARKS
LAS VEGAS      MOSUNNY   87  22   9 NE10      30.05S
6HR MIN TEMP:  78; 6HR MAX TEMP:  87;

SALT LAKE CITY MOSUNNY   62  44  51 N7        30.29R
6HR MIN TEMP:  56; 6HR MAX TEMP:  62;

$$

NMZ009-TXZ055-250100-
NEW MEXICO-WEST TEXAS

CITY           SKY/WX    TMP DP  RH WIND       PRES   REMARKS
ALBUQUERQUE    MOSUNNY   69  29  22 NW14      30.11R
6HR MIN TEMP:  62; 6HR MAX TEMP:  72;

EL PASO        MOSUNNY   82  38  20 NW12G22   29.97F
6HR MIN TEMP:  78; 6HR MAX TEMP:  84;

$$


........................KEY........................
SKY/WX - SKY CONDITION/WEATHER
TMP    - TEMPERATURE IN FAHRENHEIT
DP     - DEW POINT IN FAHRENHEIT
RH     - RELATIVE HUMIDITY IN PERCENT
WIND   - DIRECTION AND SPEED IN MILES PER HOUR (MPH)
VRB    - VARIABLE WIND DIRECTION
PRES   - MEAN SEA LEVEL PRESSURE IN INCHES OF MERCURY
         F - FALLING PRESSURE   R - RISING PRESSURE
         S - STEADY PRESSURE
VSB    - VISIBILITY IN MILES
HX     - HEAT INDEX IN FAHRENHEIT
WCI    - WIND CHILL INDEX IN FAHRENHEIT
TC     - TEMPERATURE IN CELSIUS WHICH IS ALSO KNOWN AS
         TEMPERATURE IN CENTIGRADE
AFB    - AIR FORCE BASE
         LUKE AFB IS LUKE AIR FORCE BASE
         DAVIS-MONTHAN IS DAVIS-MONTHAN AIR FORCE BASE
NAS    - NAVAL AIR STATION
         EL CENTRO NAS IS EL CENTRO NAVAL AIR STATION
N/A    - NOT AVAILABLE





USA.gov is the U.S. government's official web portal to all federal, state and local government web resources and services.